{"data":{"norad_id":63887,"intl_designator":"2025-094Z","name":"STARLINK-33904","alt_names":[],"object_type":"PAYLOAD","status":"ACTIVE","operator":null,"country":"US","launch_date":"2025-05-10","launch_site_code":"AFWTR","launch_vehicle":null,"mission":null,"orbit_class":"UNKNOWN","rcs_meters":null,"size_class":null,"mass_kg":null,"dimensions":null,"purposes":["comms"],"wikipedia_slug":null,"has_3d_model":false,"image_url":null,"decayed_at":null,"tle_current":{"epoch":"2026-09-20T14:12:48.087936Z","epoch_age_seconds":139036,"freshness":"FRESH","line1":"1 63887U 25094Z   26263.59222324  .00009354  00000+0  32102-3 0  9991","line2":"2 63887  69.9987 100.8070 0003520 265.7068  94.3706 15.30424159 76457","mean_motion":15.30424159,"eccentricity":0.000352,"inclination_deg":69.9987,"raan_deg":100.807,"arg_perigee_deg":265.7068,"mean_anomaly_deg":94.3706,"bstar":0.00032102,"rev_number":7645,"period_min":94.091562233369,"perigee_km":472.13370838005,"apogee_km":476.95799710838,"semimajor_km":6852.6828527442,"source":"CELESTRAK","updated_at":"2026-09-21T09:00:35.141866Z"}}}